Theta_e
289 289 289 289 288 288 288 289 289 289 289 289 289 290 288 287 285 283 285 285 284 288 290 287 289 291 290 288 289 289 289 289 288 289 289 289 289 289 291 293 293 293 294 294 294 295 295 295 295 296 296 296 296 297 297 297 297 298 298 298 300 301 300 300 300 299 302 303 303 303 303 303 301 302
288 287 287 288 287 287 287 287 287 287 288 287 288 288 288 288 286 285 283 284 286 286 288 288 286 288 288 288 288 288 288 288 288 288 288 288 288 289 290 290 291 291 292 293 293 294 294 295 295 295 295 295 296 297 297 297 297 297 298 300 300 299 300 301 300 300 299 300 301 302 303 302 301 302
288 287 286 287 287 287 287 287 287 287 287 287 287 287 288 287 287 285 284 282 286 287 284 286 287 286 287 287 287 288 288 288 288 288 288 288 288 288 288 288 290 291 292 292 293 294 295 295 295 295 295 295 296 296 297 296 295 296 297 298 299 299 299 298 298 297 297 297 299 301 300 300 301 301
287 287 286 286 286 286 287 286 286 286 286 286 286 286 286 286 286 286 284 282 282 287 285 285 286 287 286 287 286 286 287 288 287 288 287 287 287 287 287 288 289 289 290 291 292 293 294 294 294 295 295 295 296 296 296 296 296 295 296 296 298 297 296 296 298 299 298 296 298 299 298 298 299 299
286 286 285 285 285 285 285 286 286 285 285 285 285 285 285 285 285 284 282 281 281 284 286 285 285 286 286 285 286 285 286 286 287 287 287 287 286 286 286 286 287 288 289 290 291 293 293 293 293 293 293 293 294 294 295 295 295 295 295 295 297 296 296 297 297 296 297 299 298 298 297 298 301 300
286 286 285 284 284 285 285 285 285 285 285 285 284 284 284 284 284 285 282 282 281 280 283 284 286 285 286 283 286 285 284 285 286 285 285 286 286 286 286 286 286 287 288 290 291 292 292 293 292 293 292 293 292 294 296 294 295 295 294 293 294 294 296 297 296 295 295 297 298 300 297 296 298 297
285 285 284 284 284 284 284 284 284 284 284 284 284 283 284 283 283 284 284 282 280 280 280 283 283 283 284 284 284 285 285 285 285 284 284 284 285 286 286 285 286 287 289 291 291 292 292 292 292 292 292 292 293 293 293 293 293 293 293 293 292 293 293 294 294 294 295 296 297 296 297 297 298 299
284 284 284 283 283 284 283 283 283 283 283 283 283 283 283 283 283 283 283 283 281 280 279 282 282 283 283 283 285 285 285 284 284 284 284 285 285 285 285 286 286 287 289 290 290 291 291 291 291 292 291 292 292 292 292 292 292 292 292 292 292 292 292 293 293 293 294 296 296 297 298 299 298 299
284 284 283 283 283 283 282 282 282 282 282 283 283 282 283 283 283 283 283 282 282 281 280 281 283 283 283 284 284 285 283 283 283 283 283 284 284 284 285 286 286 287 288 288 289 289 290 290 291 291 291 291 292 292 292 292 292 291 291 291 291 292 292 292 292 292 293 293 294 295 297 297 297 299
284 283 283 283 283 282 282 282 282 282 282 282 282 282 282 282 282 282 282 283 282 281 281 281 280 282 282 282 283 284 283 281 281 281 283 283 284 284 283 284 285 286 287 286 286 287 288 288 289 290 290 290 291 290 290 290 290 289 289 289 290 290 291 292 292 293 293 293 294 295 295 295 296 297
283 283 283 282 283 282 282 282 282 282 282 282 282 282 282 282 281 281 281 281 281 280 280 280 281 281 282 282 280 283 283 282 282 280 280 280 283 283 282 282 284 286 286 287 287 287 287 287 286 288 288 289 289 289 289 289 289 288 288 289 290 290 291 292 292 292 293 294 294 294 293 291 294 301
283 282 282 282 282 282 282 282 282 282 282 282 281 282 282 281 281 281 281 281 280 280 280 279 279 280 280 281 282 282 282 280 280 281 280 278 279 280 282 283 283 284 284 284 284 286 286 285 286 286 286 286 287 287 287 286 286 286 288 290 291 291 291 292 291 293 294 293 292 291 291 293 295 300
282 281 282 282 282 282 282 281 282 282 282 282 280 281 282 281 281 281 281 280 280 279 279 279 280 279 279 280 279 279 279 278 278 280 281 279 280 281 281 282 284 284 283 283 283 282 283 282 282 282 282 284 285 284 285 285 285 288 292 292 292 292 291 291 291 292 292 292 292 292 292 292 292 294
281 281 281 281 281 281 280 280 281 281 281 282 282 282 282 281 281 281 280 279 279 279 278 278 278 277 277 278 279 278 279 280 281 280 279 278 279 280 280 281 283 284 283 280 279 280 282 281 281 282 281 283 283 282 282 283 288 291 293 292 291 291 291 292 292 291 291 291 291 291 291 291 291 291
279 280 280 280 280 280 280 280 280 280 281 281 282 282 283 283 282 280 279 279 279 278 278 278 278 277 277 278 279 279 280 280 279 279 279 279 279 278 277 276 279 284 281 279 278 278 281 281 280 281 281 281 281 282 282 287 291 291 292 291 291 291 291 291 291 291 291 291 291 291 291 291 291 291
279 279 279 279 279 279 279 279 279 279 280 281 282 283 283 282 282 282 281 279 278 278 277 277 277 277 277 278 279 279 279 278 278 279 279 279 278 277 276 276 275 279 281 278 277 277 280 280 280 279 279 280 280 282 285 288 291 292 291 291 291 291 290 290 290 291 291 290 290 290 290 290 290 290
279 279 279 278 278 278 278 278 278 279 280 281 282 282 282 282 281 282 282 282 281 280 278 277 277 278 278 278 279 279 279 280 278 279 278 278 278 277 275 276 276 278 280 278 276 274 277 280 278 277 279 279 280 282 284 287 291 292 291 291 291 290 290 291 291 291 290 290 290 290 290 290 289 289
279 278 278 277 277 278 278 278 278 280 281 282 282 281 281 280 280 281 281 281 281 281 280 279 278 280 281 278 279 280 281 279 278 278 277 277 275 275 275 277 278 279 280 276 275 273 276 278 277 276 278 279 280 281 283 286 290 291 291 290 290 290 290 290 290 290 290 289 289 289 289 289 289 288
278 278 278 277 277 277 278 278 280 281 281 281 281 280 279 279 280 280 280 280 280 280 281 281 281 280 280 280 280 281 281 280 280 279 277 276 276 277 278 278 278 277 278 277 275 272 275 277 275 276 277 278 279 281 281 285 288 290 290 290 290 290 290 290 289 289 289 289 288 288 288 288 288 288
278 278 278 277 277 277 278 278 281 282 282 281 279 278 278 279 279 279 280 281 282 282 282 281 281 280 280 282 281 281 281 280 279 278 278 278 277 275 273 272 274 274 276 277 275 273 273 276 274 275 277 278 278 279 278 281 286 288 289 289 289 289 289 289 288 288 288 288 288 287 287 287 287 287
277 277 277 277 277 277 277 279 282 283 282 279 278 277 277 277 277 277 279 281 282 282 282 281 281 281 282 282 282 282 281 280 279 277 275 274 274 272 270 271 271 272 274 276 276 273 272 274 274 274 276 276 278 277 276 278 282 285 287 288 288 288 288 288 287 287 287 287 286 286 286 286 285 284
277 277 277 277 277 277 278 281 282 282 281 278 278 277 276 275 275 277 279 280 280 280 280 279 280 280 280 280 280 279 280 280 279 276 273 274 273 271 271 269 270 271 273 275 276 272 272 274 274 273 275 276 279 277 276 276 277 281 282 285 286 287 287 287 287 286 286 286 286 286 285 284 283 281
276 276 277 277 278 279 280 281 281 281 280 278 278 277 276 275 275 277 278 277 276 276 275 276 277 278 278 277 277 277 278 278 278 277 275 274 272 270 270 270 270 269 271 274 276 271 272 272 273 273 271 272 276 277 275 275 275 276 277 278 280 283 284 286 286 286 286 285 285 284 284 283 281 279
275 276 276 276 278 280 281 280 280 280 280 279 278 277 275 275 275 278 277 276 275 274 275 275 276 276 276 275 275 275 276 277 277 276 275 274 273 271 270 270 270 268 270 274 276 272 272 273 271 273 272 270 271 275 275 273 274 274 274 275 275 279 280 281 283 285 285 285 285 284 284 283 280 277
274 274 275 276 278 280 280 279 279 280 280 280 278 277 276 277 278 278 275 274 275 274 274 275 275 274 274 274 274 274 275 276 276 275 275 274 273 271 270 269 269 269 271 274 277 273 270 271 270 271 272 274 274 273 274 273 273 273 273 273 273 275 276 276 277 277 282 283 284 283 283 282 281 278
275 275 275 276 278 279 278 278 279 279 279 278 277 276 278 278 277 275 274 274 274 273 274 273 273 272 272 272 272 273 274 275 274 274 273 273 272 272 272 271 269 268 269 273 276 272 270 269 270 270 271 273 273 272 271 272 272 272 272 272 272 273 274 274 274 274 275 277 279 281 280 282 281 280
274 275 276 277 278 277 277 278 278 278 278 276 275 276 276 276 275 274 272 273 272 272 271 271 271 271 271 271 271 272 273 274 274 273 273 272 271 271 271 271 272 271 272 273 273 272 271 270 272 271 271 274 271 271 270 269 270 272 271 271 271 271 272 272 271 272 272 273 274 276 277 278 280 280
275 275 276 277 277 276 277 277 277 276 274 274 274 274 274 273 272 271 271 271 270 270 270 269 269 269 270 270 271 272 273 273 273 273 272 271 270 270 270 270 271 272 272 272 273 272 272 271 273 275 273 274 272 269 268 271 271 270 269 270 270 270 270 271 270 271 271 271 271 271 271 271 271 272
276 277 277 276 276 275 275 274 273 271 272 272 272 272 272 269 268 269 269 269 268 268 268 268 268 269 270 270 271 273 273 274 273 272 272 271 270 270 270 269 270 270 270 272 272 272 272 272 273 274 274 274 272 270 270 268 268 268 269 268 267 268 269 269 269 269 269 269 269 269 269 269 269 271
278 277 275 275 274 273 272 270 269 268 268 270 270 269 268 266 267 268 268 267 267 266 267 267 267 268 269 270 272 273 273 272 272 271 270 269 269 268 268 269 270 270 271 271 272 272 271 272 272 273 272 272 271 270 269 268 267 268 268 268 268 269 269 268 268 268 268 268 268 269 270 270 270 271
273 273 273 272 272 271 271 270 269 268 267 265 265 265 265 266 267 267 267 266 265 265 265 266 266 268 269 271 272 271 272 271 272 271 269 268 267 267 267 267 268 270 271 271 272 272 271 271 271 272 271 270 270 269 269 268 266 266 267 267 267 265 267 268 268 267 268 268 268 268 269 270 271 272
270 270 270 268 266 265 264 264 263 263 263 264 264 264 264 264 266 266 266 266 265 265 265 265 266 267 269 269 270 271 271 271 271 270 269 267 266 267 267 267 267 268 269 271 272 272 272 271 271 271 270 270 268 268 269 268 266 266 266 267 267 267 267 266 267 267 268 268 267 267 268 269 269 270
266 265 265 264 263 263 262 262 262 262 262 262 262 261 262 264 264 264 264 263 263 264 264 264 265 266 268 268 269 270 270 270 270 270 269 267 266 266 267 266 266 266 266 268 270 271 272 271 271 270 270 269 269 269 268 266 266 266 266 266 266 266 266 266 267 266 267 267 266 267 267 268 269 269
263 263 262 262 261 261 261 261 261 261 261 261 261 261 263 263 263 263 263 262 262 263 263 264 265 265 266 267 268 269 269 270 270 270 269 266 265 264 265 265 266 266 266 266 267 268 269 272 272 271 270 270 270 269 268 266 265 265 265 266 265 265 265 266 266 266 267 267 266 266 266 266 268 269
263 262 262 261 261 261 260 260 260 261 260 260 260 260 261 261 262 262 261 262 262 262 263 264 264 265 265 266 267 268 269 269 269 269 268 266 265 265 264 265 265 265 265 265 265 266 266 269 272 271 271 270 269 269 271 269 266 266 266 265 265 265 265 265 266 266 266 266 267 265 265 266 267 268
262 261 261 261 260 260 259 260 260 260 259 259 259 259 260 260 261 261 260 261 261 261 262 263 263 264 265 265 266 267 268 269 268 268 267 266 264 264 265 265 265 264 264 264 264 265 265 267 271 271 269 268 267 266 266 270 269 266 266 264 264 264 264 264 264 265 265 265 266 266 265 264 266 267
262 260 260 260 260 260 259 259 258 258 258 258 258 259 259 259 259 260 260 260 260 261 262 263 262 263 264 265 265 266 268 268 267 267 267 266 264 264 263 264 264 264 263 264 264 264 264 265 267 270 269 267 266 265 265 266 268 269 266 264 264 264 264 264 264 263 263 264 264 265 265 265 265 267
261 261 259 260 260 259 259 259 259 258 258 258 258 258 258 259 259 259 259 258 259 261 261 261 262 263 263 264 264 265 266 267 267 267 266 266 265 264 264 264 264 264 263 263 263 263 263 264 265 266 268 267 265 264 264 265 264 266 269 266 264 264 265 264 263 262 262 264 264 265 266 265 266 267
261 260 260 260 260 259 258 259 258 257 256 257 257 258 257 257 257 257 258 259 260 260 260 261 261 263 263 263 264 264 265 266 266 266 266 266 265 264 264 264 264 264 263 262 263 263 263 263 263 264 265 267 267 267 267 264 263 265 268 268 266 264 264 264 262 262 263 263 264 265 265 266 269 271
260 261 260 259 259 258 258 258 257 257 256 257 257 257 256 257 257 257 257 258 259 260 260 260 262 262 262 262 263 263 264 265 266 266 266 265 265 265 264 264 264 264 263 261 261 262 263 263 263 264 264 265 266 266 266 266 266 266 267 268 269 267 265 264 263 262 262 263 264 264 263 264 264 264
260 260 260 259 258 258 258 257 257 256 256 256 255 257 257 256 256 256 257 258 260 259 259 260 261 261 261 262 262 263 263 265 266 266 266 265 265 265 264 264 262 262 262 261 260 261 262 263 262 265 265 266 266 267 266 264 263 263 264 266 269 269 267 266 264 264 263 262 262 262 262 261 262 263
260 259 259 257 257 257 257 256 255 255 255 255 255 255 255 256 256 258 259 259 257 258 259 260 260 261 261 261 262 263 263 264 265 265 265 265 264 264 263 262 261 261 261 261 261 262 263 262 262 263 264 265 265 264 263 262 262 262 263 265 266 269 269 268 268 267 264 262 262 261 261 261 261 262
259 258 258 257 257 257 256 255 255 255 255 255 255 255 254 255 255 256 256 256 257 259 260 260 261 261 261 261 262 263 263 264 264 264 264 264 264 263 263 262 261 261 261 262 262 261 262 261 262 263 263 264 263 263 263 262 262 262 262 263 265 266 267 269 269 269 268 268 268 266 264 264 262 261
259 258 258 257 257 257 256 255 254 254 254 255 255 255 255 255 255 256 256 257 258 259 260 261 260 260 260 261 261 262 263 264 264 264 264 264 264 264 263 262 262 261 262 262 262 262 262 262 262 262 263 262 262 263 262 261 261 262 262 263 263 264 264 265 267 269 269 270 271 271 270 269 269 268
259 258 257 256 256 256 256 255 254 254 254 255 255 255 255 256 256 256 256 256 258 260 261 261 260 260 260 260 261 261 262 264 264 264 264 264 264 264 263 263 262 262 262 262 261 262 261 261 261 261 261 261 262 262 262 262 261 261 261 261 261 261 260 259 263 264 264 264 267 270 272 271 270 269
Wind_Speed
5 5 5 5 4 3 3 3 3 3 3 3 2 1 1 1 2 6 7 6 2 3 2 3 2 4 8 9 9 10 9 11 14 12 12 12 12 15 23 24 25 25 26 27 28 29 31 31 32 32 32 33 33 34 35 35 36 36 36 37 38 39 38 38 37 37 36 35 36 36 35 34 35 32
5 6 5 4 5 3 3 3 3 3 3 3 2 2 1 0 0 2 5 9 0 4 0 1 5 7 9 9 11 8 10 12 14 12 12 11 12 21 24 22 22 24 26 28 28 30 32 31 31 32 32 33 34 35 35 37 37 37 37 38 39 38 37 37 37 38 37 38 37 38 38 37 38 37
5 6 7 4 4 3 3 3 3 3 2 2 1 1 1 1 1 2 3 6 3 4 9 4 3 10 13 11 10 8 9 11 14 13 12 12 14 19 18 20 22 24 27 28 29 29 31 32 32 33 34 34 35 35 36 37 38 37 38 38 38 38 38 38 38 39 39 37 38 36 38 38 38 39
5 6 7 5 4 3 3 3 3 3 2 2 2 2 1 1 1 2 4 6 13 2 6 9 7 8 12 12 12 16 12 8 12 13 13 15 17 13 13 16 20 24 29 30 29 29 30 32 34 33 34 36 36 36 37 38 39 39 38 38 38 38 38 38 37 37 38 35 37 36 36 37 36 37
5 6 7 5 4 2 3 3 2 3 2 2 2 2 1 1 1 2 4 6 12 10 4 6 8 10 11 11 10 14 15 16 14 13 13 15 13 12 13 14 18 21 27 30 32 31 32 32 33 34 33 34 35 36 37 37 38 38 38 37 38 38 38 39 39 39 38 37 37 39 38 37 36 34
3 5 6 5 4 2 4 4 3 3 2 2 2 2 2 2 2 2 3 6 8 15 11 6 7 7 6 11 11 11 15 17 17 19 17 14 14 12 13 14 14 21 26 32 32 31 31 31 33 33 34 34 35 36 37 36 36 37 38 38 38 39 40 39 40 39 38 37 38 35 37 37 37 35
4 5 5 5 4 2 4 4 3 2 3 2 2 3 2 2 3 3 4 7 10 12 14 10 9 10 9 9 12 13 11 12 14 17 17 17 15 13 14 16 15 18 26 30 32 32 31 30 31 32 34 35 35 36 36 36 36 37 38 39 40 38 38 39 39 40 39 39 37 38 37 38 35 36
4 5 5 4 3 3 4 4 3 2 2 2 2 2 3 4 5 5 5 6 8 11 13 12 10 10 13 12 11 11 11 12 14 14 15 15 14 15 14 15 16 20 29 31 30 28 29 31 31 32 34 35 35 36 36 37 37 38 38 38 38 38 38 39 39 40 41 39 39 38 36 38 38 37
5 4 5 4 3 3 4 3 3 2 3 2 3 5 5 5 6 6 6 7 7 10 13 15 12 10 11 11 11 9 13 16 16 17 16 15 17 17 16 13 14 20 30 28 24 23 26 29 33 35 33 35 35 35 36 37 37 37 37 36 36 37 37 37 38 39 39 39 37 38 39 38 40 39
4 4 4 4 3 4 4 4 3 3 3 3 5 6 6 6 6 7 7 7 8 9 11 12 16 13 13 14 12 10 12 15 17 17 18 18 16 17 18 18 12 12 11 17 17 17 20 27 32 33 32 34 35 34 35 36 36 36 36 36 35 35 36 38 40 41 42 41 39 35 38 40 44 48
4 4 4 4 4 4 4 3 3 3 5 5 5 6 6 6 7 7 7 7 8 9 11 12 12 14 12 12 15 13 14 16 13 15 17 19 16 16 16 20 19 16 18 19 23 23 25 28 25 27 30 31 32 34 36 37 36 35 35 35 36 37 37 38 39 41 41 40 34 30 32 33 31 21
4 4 4 4 4 4 3 3 3 4 4 4 4 5 5 6 7 7 8 8 9 9 10 11 12 11 13 13 12 13 15 15 14 13 16 19 19 19 20 16 17 17 16 18 18 18 21 22 24 28 27 27 31 34 33 34 37 34 36 38 35 31 30 32 32 28 28 26 21 16 17 34 41 40
3 3 4 3 4 5 5 6 5 5 4 3 4 5 5 6 7 7 8 8 9 9 9 10 10 12 12 11 14 16 15 15 17 18 15 15 16 17 18 17 9 10 17 17 18 16 16 17 17 17 17 19 26 26 32 29 34 43 35 26 22 24 23 24 26 32 32 32 31 31 46 38 34 44
4 4 3 3 5 5 5 5 6 6 6 5 4 4 5 7 7 7 8 8 8 8 9 9 10 12 12 12 13 14 15 15 15 16 16 17 18 16 16 15 12 13 13 17 17 14 14 16 17 16 16 18 20 17 19 22 30 27 31 27 25 26 28 32 37 36 36 35 34 38 41 38 40 41
4 3 3 3 3 3 3 4 5 6 5 5 6 6 7 7 7 7 8 8 8 8 9 9 9 10 14 14 13 14 15 14 15 15 15 15 16 16 18 18 16 10 15 16 17 16 14 14 16 16 15 17 17 17 18 36 28 32 31 30 31 32 33 33 34 34 37 37 37 38 37 39 42 43
4 3 3 2 2 2 4 3 2 3 4 5 6 7 8 8 10 10 9 9 9 9 9 10 9 10 12 14 14 13 14 16 16 15 15 14 15 17 17 15 16 15 16 17 16 16 14 13 14 15 14 14 15 18 27 35 26 28 30 31 31 32 31 29 29 33 34 34 34 37 37 39 38 39
4 3 2 2 1 2 3 2 2 2 3 4 7 8 8 8 9 10 11 11 9 9 9 10 11 11 12 14 13 13 15 16 16 15 14 15 15 14 14 13 15 19 17 16 15 16 14 13 15 15 13 14 14 15 22 32 24 26 27 30 31 30 29 27 28 29 31 32 34 35 36 37 38 37
4 3 2 1 2 2 3 2 2 4 5 6 7 6 6 6 8 9 10 11 11 10 8 10 11 12 11 12 14 15 14 14 14 13 12 13 16 16 15 15 15 14 11 13 14 14 13 13 14 14 14 13 14 12 23 30 25 25 27 28 29 28 28 28 30 31 32 32 32 33 34 34 34 35
4 2 2 2 2 2 3 3 5 6 7 7 6 6 6 7 7 7 7 8 8 7 8 9 11 12 11 11 13 13 13 12 12 11 12 14 14 15 15 11 10 11 9 10 10 10 13 13 14 13 14 14 12 10 19 26 27 26 28 28 26 27 28 28 29 29 30 32 32 32 31 33 34 35
3 2 2 2 2 2 3 4 7 8 7 6 6 6 6 6 6 6 8 11 9 9 9 9 11 11 12 15 13 13 12 11 11 13 12 11 11 14 14 12 10 11 9 9 8 9 12 11 12 14 13 11 10 12 12 20 28 26 27 27 27 27 27 27 27 27 28 28 29 29 29 31 33 35
3 2 2 2 1 3 3 5 9 10 9 5 6 6 6 6 6 7 6 8 10 11 13 15 16 16 16 15 16 16 18 15 13 11 12 12 12 12 14 14 11 12 11 7 6 9 11 11 12 12 12 11 8 9 11 11 20 26 26 26 26 25 26 26 26 26 27 27 27 27 28 28 26 26
2 3 3 2 1 3 4 7 9 10 8 5 6 7 7 7 7 7 5 6 6 10 12 14 14 14 13 13 13 14 16 17 14 10 11 12 11 11 11 13 13 12 10 6 8 10 9 11 10 10 10 8 3 7 10 12 13 19 18 25 27 26 25 25 26 25 26 26 26 26 25 23 20 16
2 1 1 2 2 3 4 8 8 9 8 6 6 7 7 8 8 7 7 7 7 7 8 8 8 8 9 8 8 8 14 14 12 9 10 10 10 10 11 11 12 12 7 5 10 10 10 9 10 7 9 5 3 6 9 11 11 11 11 11 14 24 24 26 27 25 26 26 25 26 26 24 19 12
2 2 0 1 2 4 7 8 8 8 9 6 6 6 6 8 9 8 7 6 8 8 8 8 7 6 6 7 7 7 7 7 7 8 8 9 9 10 10 9 9 9 9 8 12 10 10 7 8 6 5 5 5 5 8 9 10 10 10 10 10 16 18 18 18 27 26 26 28 27 27 27 21 11
3 1 1 1 2 6 7 7 7 8 8 8 5 5 6 8 11 13 8 8 11 8 8 7 6 6 5 6 6 7 7 6 6 7 7 7 8 8 9 9 8 8 11 11 15 9 6 7 9 7 5 4 2 4 5 7 9 10 10 10 9 11 10 11 10 10 18 25 26 27 26 26 26 17
3 2 1 1 2 5 5 6 6 7 7 8 4 6 11 14 14 10 8 7 7 7 7 7 7 7 7 7 7 7 7 8 9 7 5 6 6 7 8 8 8 8 10 10 16 9 7 6 4 6 5 4 2 4 4 5 8 9 8 9 10 9 10 9 9 10 10 10 13 18 21 25 24 26
3 3 2 1 2 3 4 5 5 5 7 5 5 10 11 12 14 10 6 7 7 7 7 7 7 7 8 8 8 9 9 9 10 10 7 6 6 6 7 7 6 7 8 10 10 9 7 6 7 6 5 3 2 2 5 4 5 7 8 9 9 9 9 8 9 9 9 10 10 18 18 20 24 25
4 3 2 1 1 2 4 5 5 6 6 5 8 9 11 12 11 6 7 6 7 7 7 7 7 7 8 8 8 9 10 10 10 9 8 7 7 5 6 7 6 6 7 8 9 8 7 6 7 5 6 3 2 2 2 3 4 6 6 6 8 9 8 8 8 8 9 9 9 9 9 9 9 9
4 4 4 4 4 4 5 6 7 6 6 8 8 10 11 10 4 5 6 6 7 6 6 7 7 7 7 8 9 9 10 9 7 7 7 8 7 6 5 5 4 4 5 6 7 8 7 6 6 5 3 3 4 4 3 3 3 5 6 4 7 8 8 8 7 7 8 8 8 9 8 7 8 8
7 6 6 6 7 7 6 4 3 3 3 7 9 10 9 4 5 5 5 6 6 6 6 7 7 7 8 8 9 9 8 9 10 9 10 10 8 8 8 7 5 5 5 5 6 7 7 7 6 4 4 6 5 5 4 4 5 5 5 5 3 4 8 7 7 7 8 8 8 8 8 8 9 8
5 5 5 5 8 7 6 5 5 4 5 4 4 4 3 3 5 5 5 5 5 6 6 7 7 7 8 8 8 8 9 9 9 8 8 9 7 7 6 4 4 5 6 5 5 7 7 7 7 6 5 5 6 6 4 4 6 5 6 6 5 5 3 5 6 7 6 6 6 7 7 8 8 9
4 4 6 7 5 5 3 1 1 0 1 2 3 3 3 2 4 5 7 6 4 5 5 6 7 7 7 7 8 8 8 7 8 7 6 6 6 6 7 5 5 5 5 5 4 5 7 8 7 7 7 5 6 4 5 6 6 5 5 4 5 4 4 4 4 4 4 3 6 8 7 8 8 8
6 5 5 4 4 3 1 1 0 1 1 2 2 2 2 2 3 4 5 5 6 6 6 6 6 7 7 7 8 8 7 7 8 6 7 5 5 5 4 4 4 6 6 6 5 5 4 6 7 7 7 7 7 4 2 4 5 4 4 3 3 4 4 4 3 2 2 4 6 6 8 8 7 7
5 4 4 3 3 2 2 1 1 1 1 1 2 2 4 3 3 4 4 5 5 6 5 6 6 6 7 7 7 8 7 8 8 6 6 5 5 3 5 6 5 4 4 4 4 4 5 1 3 5 6 8 8 9 6 5 4 3 3 2 3 3 3 2 3 3 2 3 4 6 6 6 5 6
6 5 5 4 3 2 2 1 1 0 0 0 1 1 1 1 2 4 4 5 6 6 5 5 5 6 6 6 7 8 8 8 8 8 5 2 4 3 3 3 4 4 5 5 4 5 5 4 1 2 1 1 3 8 12 7 3 2 2 3 2 3 2 3 2 3 3 2 2 6 7 7 6 4
4 5 6 5 4 3 3 2 2 1 1 0 0 1 1 1 1 2 4 6 6 5 5 5 6 6 6 6 7 7 8 8 8 8 8 5 4 4 3 2 3 4 3 3 4 4 4 4 2 0 0 0 0 1 2 9 7 0 1 1 2 2 2 2 3 3 3 3 3 2 4 6 5 4
7 4 5 6 5 4 4 3 2 2 1 1 1 1 1 2 2 2 4 5 5 5 4 4 5 5 5 6 7 7 7 7 8 8 8 7 3 3 3 4 3 3 3 3 3 3 3 2 3 0 2 1 0 0 1 2 6 6 1 2 1 1 1 1 1 4 4 2 3 3 4 5 5 4
8 5 6 5 6 5 4 4 3 2 1 1 1 2 2 2 3 3 3 3 5 4 4 4 4 4 4 5 6 6 7 6 6 7 7 7 7 5 3 4 4 3 3 3 3 3 4 3 2 2 1 2 2 2 3 1 1 4 4 2 1 1 1 1 2 2 3 3 3 2 2 4 4 2
6 7 6 7 6 6 5 5 4 3 2 2 2 2 1 1 1 1 3 4 5 4 4 4 3 4 4 5 5 6 7 7 7 7 7 7 7 6 4 4 5 3 2 2 3 3 4 4 4 3 2 1 2 1 2 3 1 1 2 5 3 1 0 1 3 2 1 2 2 2 2 1 3 9
6 5 6 7 7 6 6 5 4 3 3 3 2 2 1 1 2 3 4 5 5 4 4 4 5 5 4 5 5 5 6 6 6 7 7 6 7 6 4 4 3 4 2 2 2 3 4 5 4 5 3 2 1 3 5 5 4 1 2 3 1 2 2 2 2 3 2 1 0 1 2 1 2 2
6 6 5 7 7 6 7 5 4 3 3 2 3 3 1 1 1 2 3 5 5 4 4 4 4 4 5 5 5 5 6 6 5 6 7 7 7 7 7 6 2 2 2 2 1 1 2 3 5 9 4 1 2 2 3 3 2 1 2 3 6 2 4 3 4 2 2 2 1 1 1 1 1 1
7 7 8 8 9 8 6 6 4 3 3 3 3 2 2 2 2 5 6 7 5 5 4 4 4 4 4 5 5 5 5 6 6 6 7 6 6 6 6 2 2 2 2 2 2 2 2 3 4 3 2 1 1 0 0 1 3 2 1 1 2 5 2 3 4 5 5 4 2 2 1 0 0 1
7 8 10 7 4 7 7 6 4 4 3 3 3 2 2 2 1 2 3 4 4 3 3 3 4 4 5 5 5 5 5 6 6 6 7 6 6 6 7 4 2 2 2 2 2 2 2 2 2 2 1 0 0 0 2 3 3 4 2 2 2 2 3 4 8 10 10 8 4 2 1 1 1 1
8 10 9 7 6 5 6 6 5 4 4 3 3 3 2 2 1 3 3 4 3 3 3 4 4 4 5 5 5 5 5 5 6 6 7 6 6 6 6 4 3 3 2 2 2 2 2 2 2 1 0 0 1 1 2 4 4 4 4 3 1 1 2 3 3 5 6 10 10 3 4 3 4 3
8 7 7 6 6 5 6 7 5 4 4 4 3 4 3 1 2 3 4 4 3 4 4 4 4 5 5 5 5 5 5 6 6 6 6 6 6 6 5 4 3 3 3 1 2 2 1 2 1 1 0 0 0 1 2 1 2 4 3 3 2 1 1 3 1 1 2 1 7 14 7 5 5 4
Wind_Direction
115 108 103 95 101 88 91 87 83 84 79 77 64 40 62 66 303 326 313 332 3 295 112 344 299 60 359 336 333 326 324 324 323 320 317 314 314 318 325 327 328 327 325 321 320 320 321 321 321 319 318 317 316 314 311 311 310 308 309 306 306 304 304 304 301 300 300 300 298 298 296 295 292 290
110 106 94 88 86 92 82 84 83 80 88 84 76 83 49 73 208 285 307 300 299 274 57 102 320 329 335 333 324 321 321 316 317 317 313 314 320 322 322 325 328 327 323 321 320 320 321 322 321 320 319 317 316 314 312 312 309 309 308 308 306 307 306 306 306 305 301 299 297 296 296 295 294 291
112 99 90 84 82 77 80 79 74 65 63 63 85 71 45 13 310 266 280 298 273 79 321 323 353 323 326 326 317 315 312 319 321 317 318 318 322 317 319 322 326 325 320 318 320 321 322 322 322 320 318 318 317 315 313 310 309 309 309 308 308 306 308 308 308 305 303 301 300 297 296 292 292 290
95 99 92 84 81 66 76 66 60 60 54 52 54 50 51 359 327 294 275 262 275 314 294 301 316 329 321 323 327 324 321 311 319 323 317 320 322 322 320 320 323 321 319 318 322 322 322 323 321 317 315 317 315 314 311 310 308 309 309 309 309 308 309 308 307 306 303 303 302 298 294 293 290 291
95 98 100 94 88 99 89 83 78 65 59 56 42 57 57 6 336 322 295 286 292 297 172 296 307 324 326 321 331 322 324 324 326 325 319 319 322 321 322 321 320 316 316 321 324 324 325 323 318 316 318 317 315 313 310 310 309 309 309 310 310 310 310 309 307 308 308 306 303 300 296 293 292 287
98 105 102 95 92 90 94 84 79 64 58 57 41 33 33 3 342 318 315 298 298 299 308 307 313 310 323 311 325 327 325 323 325 325 324 322 322 324 322 320 317 310 315 322 324 324 323 320 317 318 320 319 315 313 313 311 309 309 310 310 308 308 308 307 307 306 304 302 298 295 295 292 290 287
118 102 94 92 95 103 97 88 78 73 52 42 41 15 0 354 334 321 309 306 303 305 302 308 313 324 322 316 317 321 316 311 315 318 321 321 321 322 322 319 317 307 317 323 327 325 323 321 319 321 320 318 315 313 312 310 308 306 306 308 309 310 307 306 304 304 301 300 296 296 296 292 286 286
115 110 103 97 103 108 100 90 81 66 48 41 21 6 351 343 332 323 311 299 296 301 304 309 319 320 322 316 316 316 314 320 320 317 311 311 310 313 318 318 317 316 318 323 323 324 323 322 322 322 321 316 313 313 312 311 310 309 310 309 308 307 307 306 305 302 303 302 304 300 297 292 289 287
118 108 100 113 114 113 97 88 70 48 36 21 11 359 352 343 335 328 319 309 302 300 300 305 308 314 309 306 308 321 329 328 325 321 317 317 319 317 322 322 322 313 314 312 317 325 327 327 325 323 321 316 314 315 314 314 313 313 311 310 308 308 309 307 304 302 301 301 299 299 296 295 290 281
105 107 107 108 105 86 78 66 53 40 15 13 5 1 353 344 334 326 319 313 308 303 299 304 309 318 323 321 317 326 329 327 325 324 322 322 325 326 328 328 324 318 302 326 328 332 331 327 324 322 322 320 318 320 319 317 315 313 311 308 309 311 311 310 308 305 301 296 294 298 298 298 297 288
100 101 100 91 79 72 69 58 40 22 14 14 1 355 351 338 333 325 321 318 313 309 308 305 304 308 314 319 315 323 327 324 322 323 324 320 324 324 326 326 329 327 324 321 324 334 333 328 325 322 324 323 323 323 323 318 316 312 309 312 313 314 315 314 314 310 300 292 292 299 310 301 323 313
99 94 85 75 72 64 57 55 35 29 20 7 359 352 348 339 334 327 322 320 316 312 310 308 311 314 315 318 313 316 326 326 326 332 330 323 325 326 324 323 326 327 327 330 331 339 335 330 329 328 327 327 327 326 323 320 314 313 315 312 313 318 323 331 331 9 31 45 45 5 332 23 10 29
96 87 76 73 62 55 55 44 41 31 24 11 358 349 343 335 330 324 321 318 314 311 310 310 312 314 316 320 324 324 327 328 324 325 328 318 317 320 319 322 325 328 328 331 328 336 335 329 329 328 327 330 332 329 326 317 321 319 321 328 335 342 356 19 22 35 42 48 45 38 42 34 18 36
96 83 79 69 63 63 57 44 35 30 27 17 0 339 334 332 329 324 320 316 314 312 313 316 321 318 317 323 323 317 316 319 323 327 328 323 321 320 321 319 330 338 338 331 329 338 333 330 324 328 330 332 335 331 323 330 333 16 25 30 41 42 41 39 41 42 44 43 38 40 47 42 42 49
108 103 93 87 79 82 55 42 28 16 18 8 352 339 332 332 328 324 319 312 313 313 311 316 318 314 312 314 317 315 319 323 325 322 319 317 319 325 330 330 325 345 343 332 328 328 331 333 327 329 332 333 333 333 325 333 5 32 43 51 54 50 46 45 46 46 46 48 45 45 45 46 46 47
112 101 94 87 81 50 31 33 17 343 338 333 346 340 337 332 324 314 310 311 311 314 313 313 312 311 308 311 316 320 325 323 321 319 320 321 323 326 329 328 325 323 333 329 327 323 326 330 331 329 331 333 332 331 332 337 11 34 39 42 44 50 50 45 48 50 50 50 49 48 47 47 47 49
109 100 93 92 49 38 13 11 349 315 304 276 331 339 337 328 320 315 309 305 303 305 304 305 305 303 308 310 315 321 317 316 313 320 323 327 327 324 323 325 322 319 331 328 329 322 323 334 334 325 329 334 331 332 336 340 5 35 42 45 48 49 51 48 47 51 53 53 53 53 52 51 51 52
105 99 104 95 34 16 352 334 331 340 339 347 342 342 337 329 321 315 309 304 301 300 296 294 292 301 311 311 312 313 314 315 320 323 325 333 323 319 316 317 312 313 330 332 325 310 323 338 330 328 328 333 333 338 338 345 6 40 44 49 52 49 49 50 52 53 55 55 57 57 57 57 57 58
97 97 106 70 48 6 335 322 355 350 346 340 339 336 329 324 318 314 310 306 303 296 291 293 300 307 312 309 311 313 317 319 320 327 326 319 305 302 306 308 312 315 326 327 319 312 324 331 330 328 330 331 333 346 334 351 5 38 45 46 46 47 49 52 53 54 53 55 58 60 62 62 62 61
92 93 77 57 24 336 310 326 347 345 342 337 337 331 323 319 319 306 300 298 300 305 308 306 306 307 308 312 314 320 324 326 329 324 316 309 315 317 314 316 323 317 330 325 329 326 321 329 329 323 325 328 337 346 342 344 2 22 43 47 47 50 51 52 52 53 55 56 58 59 62 63 64 65
97 86 58 46 4 308 304 325 343 344 346 338 333 328 323 318 308 305 288 281 305 313 312 308 305 305 311 318 325 329 332 329 326 322 320 325 330 325 321 320 329 324 327 325 357 329 316 329 328 321 325 324 338 352 342 341 358 12 23 38 47 50 53 54 54 55 56 57 57 59 60 62 59 55
110 69 53 27 314 298 297 334 344 344 348 339 337 331 323 316 319 318 322 321 319 318 312 305 304 308 316 331 335 333 331 330 333 331 328 328 327 321 320 314 319 315 314 324 354 327 315 319 322 321 318 315 19 6 354 351 350 360 11 23 33 44 53 56 56 57 57 57 58 57 56 47 49 54
119 79 33 6 342 339 335 342 343 346 348 343 336 330 322 320 321 323 328 324 324 317 311 310 312 317 333 336 332 327 330 331 334 340 331 327 324 318 318 315 317 318 323 340 348 327 316 323 314 340 331 337 348 41 356 359 360 2 355 5 15 26 36 51 60 59 60 60 58 54 48 43 43 49
136 147 216 297 328 346 342 346 346 349 351 346 334 331 324 322 321 327 326 327 323 314 308 306 313 324 330 327 327 326 325 329 342 344 334 326 321 315 308 308 308 301 298 312 335 326 305 305 303 322 289 289 317 2 6 355 4 8 2 9 14 8 16 20 41 57 62 65 66 65 60 55 49 46
154 172 177 248 311 343 345 346 350 355 353 348 346 333 324 324 321 327 323 324 323 314 312 315 322 326 330 331 330 332 331 340 343 338 329 319 317 312 304 301 300 288 291 302 326 331 308 306 297 307 305 287 321 334 2 11 14 15 7 16 17 9 15 23 21 23 54 62 65 65 64 61 55 50
159 164 182 202 328 342 343 355 358 360 357 354 357 333 330 328 332 333 327 321 323 323 323 323 324 331 336 341 338 335 337 341 342 336 327 324 314 309 303 300 301 299 303 316 326 319 303 301 288 297 294 288 38 15 343 21 27 15 10 17 23 15 13 17 23 23 15 34 50 63 67 67 66 64
161 164 180 211 328 354 359 6 8 8 6 8 346 340 340 340 343 343 333 329 326 327 326 326 328 336 339 338 337 339 342 342 342 336 332 326 316 304 300 297 290 288 299 314 317 311 292 277 277 255 268 294 99 22 23 12 10 11 25 24 22 17 10 13 31 24 15 31 39 42 49 52 62 66
162 165 171 178 72 47 27 24 28 24 18 4 353 353 351 355 352 338 335 332 330 324 324 330 331 333 333 331 333 338 337 338 334 330 328 327 323 315 313 307 297 301 304 309 322 322 305 282 298 292 224 240 101 66 83 41 34 20 36 32 33 25 15 21 28 30 29 34 37 33 41 43 28 46
169 171 159 133 102 76 49 43 42 32 19 6 5 360 3 0 340 340 343 340 332 327 327 326 324 323 327 326 325 324 328 326 325 333 330 327 326 322 297 275 258 285 303 318 337 341 337 325 331 345 44 57 92 64 66 58 34 29 24 22 39 18 17 22 26 35 38 39 40 37 37 36 38 38
162 150 147 126 95 75 58 51 39 38 13 11 9 7 2 345 349 352 353 341 336 325 323 321 320 319 315 317 320 320 329 338 344 344 339 336 331 340 341 341 343 338 328 328 354 354 352 353 356 5 55 56 69 94 88 93 63 33 20 50 92 57 24 23 31 37 43 44 41 45 43 42 45 53
127 135 134 115 100 88 80 71 52 43 20 13 7 357 352 349 356 2 355 341 328 322 317 316 311 308 307 314 323 332 337 340 340 348 337 336 326 332 334 325 327 335 339 340 12 18 16 9 9 11 57 67 61 60 57 71 82 61 45 32 35 79 6 23 38 40 40 46 49 43 37 41 43 45
129 122 109 90 75 69 52 52 1 342 29 26 20 1 348 354 1 357 346 334 324 320 316 305 303 304 317 322 324 326 332 336 339 342 336 338 326 330 340 349 352 343 331 349 12 28 33 23 24 27 35 47 80 73 61 69 75 78 73 49 59 59 33 34 40 40 18 40 61 52 41 36 40 41
102 104 102 102 89 100 137 179 35 17 37 47 39 2 331 12 1 357 354 344 336 323 321 318 317 319 321 319 318 322 325 332 339 343 338 335 335 321 347 342 332 341 340 335 345 358 31 48 39 45 49 45 36 24 53 82 58 45 66 54 54 52 36 26 28 27 355 57 66 64 59 42 33 39
129 132 126 140 135 130 152 140 92 45 19 2 19 15 8 2 355 351 342 331 326 318 318 317 319 320 316 313 318 320 324 324 335 343 348 329 332 331 343 344 339 337 331 321 324 337 333 19 98 74 67 64 59 46 33 72 92 57 51 51 50 59 35 35 39 12 21 58 82 84 68 56 33 22
146 147 153 161 153 143 145 161 165 164 104 2 358 347 351 339 340 336 330 320 322 317 313 317 318 316 313 313 316 318 322 326 329 338 339 331 326 328 327 324 327 331 332 330 329 334 328 316 258 186 163 128 69 64 52 43 69 72 70 50 43 53 38 22 36 32 28 32 54 92 91 77 53 7
158 155 152 159 160 152 154 175 185 183 173 186 273 300 329 325 327 331 322 319 316 305 310 315 322 318 316 317 317 313 319 324 327 334 336 337 332 326 321 318 315 319 320 321 326 326 327 311 306 156 353 356 79 78 33 33 43 341 56 83 33 61 48 36 28 35 29 32 17 76 91 86 66 21
154 160 159 154 160 164 172 181 184 203 193 172 225 257 268 294 303 311 302 309 293 292 300 315 309 313 316 319 317 313 316 324 326 332 332 329 313 309 317 316 319 318 314 327 328 322 337 329 331 287 154 124 279 35 43 320 26 45 101 95 81 40 38 23 51 53 30 37 45 45 84 95 84 56
161 159 157 166 169 171 179 185 180 188 192 191 212 243 249 271 299 301 303 289 281 291 308 313 307 311 319 321 319 317 317 319 321 326 330 327 327 322 325 311 316 323 318 319 335 348 355 359 7 344 271 184 181 173 186 119 333 6 31 138 123 102 38 84 57 68 59 28 57 49 60 85 68 24
167 162 171 174 175 169 183 190 177 182 182 193 222 230 241 269 279 299 296 287 284 297 310 317 315 321 323 321 321 317 313 315 322 326 327 327 324 316 312 315 312 318 321 332 346 2 14 18 10 1 336 247 204 209 148 140 83 359 76 131 130 104 71 105 104 90 90 92 75 53 45 16 68 42
180 165 168 163 171 167 180 176 186 185 183 201 219 236 208 250 291 299 293 284 292 300 305 308 317 322 319 327 322 311 302 305 313 320 321 318 321 316 305 310 306 313 310 332 356 355 19 10 358 353 338 327 46 85 100 105 109 76 26 14 317 237 168 165 136 134 105 102 93 112 89 57 61 350
173 173 180 165 162 175 171 175 176 181 190 183 217 234 222 220 259 271 268 276 293 299 303 310 316 321 322 324 318 313 303 308 312 317 321 321 317 318 318 320 310 322 311 313 327 347 3 338 307 311 327 22 74 108 110 116 97 76 42 16 2 113 176 175 152 158 139 140 98 91 72 65 55 16
177 179 175 162 174 177 171 164 169 175 179 184 208 219 220 230 231 263 273 283 284 278 284 298 322 326 318 318 308 302 303 309 315 317 322 321 319 321 318 316 310 322 327 307 323 307 301 314 318 334 341 308 312 353 85 150 149 139 86 20 346 6 70 172 203 172 147 148 144 131 117 114 96 58
180 174 175 174 174 170 161 162 168 175 178 174 202 217 213 219 222 254 258 257 260 271 273 303 320 325 319 314 308 304 307 309 315 317 318 319 319 316 319 317 293 287 285 288 287 284 306 329 358 358 345 2 310 240 182 170 161 152 145 126 92 29 26 94 136 149 170 181 181 154 195 177 134 194
176 174 179 173 176 175 169 163 170 171 167 172 216 224 227 202 205 226 238 244 257 270 296 311 318 324 319 316 314 309 310 313 320 318 317 316 315 313 310 305 298 290 291 298 305 310 335 336 357 349 2 339 319 235 165 158 170 171 162 148 164 89 93 6 54 60 58 47 37 58 161 205 219 287
175 177 169 179 176 172 180 176 167 167 163 176 198 222 225 222 227 241 245 243 252 267 296 312 318 318 317 318 318 317 314 317 316 313 313 311 314 309 304 295 291 288 287 292 314 307 336 336 327 351 39 350 330 219 188 171 152 161 162 164 146 18 355 344 54 79 22 341 359 9 28 57 72 92